Weather History for KDUJ - February, 2012

Change the Weather History Date:

Sunday, February 26, 2012

  Actual Average Record
Temperature  
Mean Temperature 30 °F 29 °F  
Max Temperature 34 °F 38 °F 58 °F (1976)
Min Temperature 25 °F 20 °F -8 °F (1963)
Degree Days  
Heating Degree Days 35 36  
Month to date heating degree days 884 1008  
Since 1 July heating degree days 3906 4952  
Cooling Degree Days 0 0  
Month to date cooling degree days 0 0  
Year to date cooling degree days 0 0  
Moisture  
Dew Point 20 °F    
Average Humidity 70    
Maximum Humidity 88    
Minimum Humidity 51    
Precipitation  
Precipitation T in 0.10 in - ()
Month to date precipitation 1.37 2.17  
Sea Level Pressure  
Sea Level Pressure 30.33 in    
Wind  
Wind Speed 7 mph (WSW)    
Max Wind Speed 16 mph    
Max Gust Speed 23 mph    
Visibility 10 miles    
Events Snow    
T = Trace of Precipitation, MM = Missing Value Source: NWS Daily Summary

Daily Weather History Graph

Daily Weather History Graph

Search for Another Location

Airport or City:

Trip Planner

Search our weather history database for the weather conditions in past years. The results will help you decide how hot, cold, wet, or windy it might be!

Date:

Astronomy

Feb. 26, 2012 Rise Set
Actual Time 6:55 AM EST 6:02 PM EST
Civil Twilight 6:27 AM EST 6:30 PM EST
Nautical Twilight 5:55 AM EST 7:02 PM EST
Astronomical Twilight 5:23 AM EST 7:34 PM EST
Moon 8:46 AM EST (2/26) 11:02 PM EST (2/26)
Length of Visible Light 12h 02m
Length of Day
11h 07m
Waxing Crescent, 20% of the Moon is Illuminated
Feb 26
Waxing Crescent
Feb 29
First Quarter
Mar 8
Full
Mar 14
Last Quarter
Mar 22
New

Hourly Weather History & Observations

Time (EST) Temp. Windchill Dew Point Humidity Pressure Visibility Wind Dir Wind Speed Gust Speed Precip Events Conditions
12:56 AM 25.0 °F 14.2 °F 21.0 °F 85% 30.27 in 10.0 mi West 11.5 mph - 0.00 in   Overcast
1:21 AM 24.8 °F 14.0 °F 21.2 °F 86% 30.21 in 9.0 mi West 11.5 mph - N/A   Overcast
1:56 AM 25.0 °F 13.6 °F 21.0 °F 85% 30.30 in 10.0 mi West 12.7 mph - N/A   Overcast
2:13 AM 24.8 °F 14.0 °F 21.2 °F 86% 30.23 in 8.0 mi West 11.5 mph - N/A   Overcast
2:56 AM 25.0 °F 14.2 °F 21.0 °F 85% 30.31 in 8.0 mi West 11.5 mph 18.4 mph N/A   Overcast
3:09 AM 24.8 °F 16.1 °F 21.2 °F 86% 30.24 in 9.0 mi West 8.1 mph - N/A   Overcast
3:23 AM 24.8 °F 15.3 °F 21.2 °F 86% 30.24 in 5.0 mi West 9.2 mph - 0.00 in Snow Light Snow
3:56 AM 24.8 °F 15.3 °F 21.2 °F 86% 30.24 in 10.0 mi WNW 9.2 mph - N/A   Overcast
4:35 AM 24.8 °F 16.1 °F 21.2 °F 86% 30.27 in 10.0 mi West 8.1 mph - N/A   Overcast
4:56 AM 25.0 °F 17.1 °F 19.9 °F 81% 30.34 in 10.0 mi WNW 6.9 mph - N/A   Overcast
5:34 AM 24.8 °F 16.9 °F 19.4 °F 80% 30.28 in 10.0 mi NW 6.9 mph - N/A   Overcast
5:56 AM 25.0 °F 17.1 °F 21.0 °F 85% 30.36 in 10.0 mi WNW 6.9 mph - N/A   Overcast
6:56 AM 24.8 °F 19.1 °F 19.4 °F 80% 30.31 in 10.0 mi WNW 4.6 mph - N/A   Overcast
7:56 AM 24.8 °F 17.9 °F 21.2 °F 86% 30.34 in 9.0 mi West 5.8 mph - N/A   Overcast
8:04 AM 24.8 °F 16.9 °F 21.2 °F 86% 30.34 in 10.0 mi West 6.9 mph - N/A   Overcast
8:56 AM 25.0 °F 17.1 °F 21.0 °F 85% 30.43 in 9.0 mi SW 6.9 mph - N/A   Overcast
9:13 AM 24.8 °F 16.9 °F 21.2 °F 86% 30.35 in 10.0 mi WSW 6.9 mph - N/A   Overcast
9:28 AM 24.8 °F 16.1 °F 21.2 °F 86% 30.35 in 10.0 mi SW 8.1 mph - N/A   Overcast
9:56 AM 26.6 °F 19.1 °F 21.2 °F 80% 30.35 in 10.0 mi WSW 6.9 mph - N/A   Overcast
10:56 AM 26.1 °F 17.6 °F 21.0 °F 81% 30.45 in 10.0 mi WSW 8.1 mph - N/A   Overcast
12:56 PM 28.0 °F 21.7 °F 18.0 °F 66% 30.43 in 10.0 mi WSW 5.8 mph - N/A   Overcast
1:56 PM 28.9 °F 21.9 °F 19.0 °F 67% 30.41 in 10.0 mi WSW 6.9 mph - N/A   Mostly Cloudy
2:15 PM 30.2 °F 23.4 °F 19.4 °F 64% 30.33 in 10.0 mi SSW 6.9 mph - N/A   Mostly Cloudy
2:56 PM 30.9 °F 24.3 °F 19.0 °F 61% 30.38 in 10.0 mi SSW 6.9 mph - N/A   Scattered Clouds
3:56 PM 33.1 °F - 18.0 °F 54% 30.36 in 10.0 mi Calm Calm - N/A   Clear
4:56 PM 33.1 °F 27.7 °F 18.0 °F 54% 30.36 in 10.0 mi South 5.8 mph - N/A   Clear
5:56 PM 32.0 °F 28.7 °F 18.0 °F 56% 30.35 in 10.0 mi SSE 3.5 mph - N/A   Clear
6:56 PM 30.9 °F - 18.0 °F 59% 30.36 in 10.0 mi Calm Calm - N/A   Clear
7:56 PM 28.9 °F 23.9 °F 18.0 °F 64% 30.35 in 10.0 mi SE 4.6 mph - N/A   Clear
8:56 PM 28.0 °F 22.8 °F 18.0 °F 66% 30.34 in 10.0 mi SE 4.6 mph - N/A   Clear
9:56 PM 28.9 °F 20.4 °F 18.0 °F 64% 30.32 in 10.0 mi SE 9.2 mph - N/A   Clear
10:56 PM 28.9 °F 21.1 °F 18.0 °F 64% 30.31 in 10.0 mi SE 8.1 mph - N/A   Clear
11:56 PM 28.9 °F 22.8 °F 17.1 °F 61% 30.31 in 10.0 mi SE 5.8 mph - N/A   Clear